Date,TemperatureHighF,TemperatureAvgF,TemperatureLowF,DewpointHighF,DewpointAvgF,DewpointLowF,HumidityHigh,HumidityAvg,HumidityLow,PressureMaxIn,PressureMinIn,WindSpeedMaxMPH,WindSpeedAvgMPH,GustSpeedMaxMPH,PrecipitationSumIn
2013-5-1,62.6,58.3,55.8,57.1,54.5,52.3,90,87,82,30.31,30.18,3,1,10,0.01
2013-5-2,61.2,57.3,53.8,56.3,53.8,50.6,90,88,83,30.33,30.26,3,1,7,0.00
2013-5-3,68.1,58.4,49.9,55.0,50.2,42.8,90,75,57,30.26,30.15,5,2,9,0.00
2013-5-4,61.5,53.7,48.0,50.5,46.3,42.2,87,76,64,30.18,30.06,6,2,9,0.00
2013-5-5,55.4,52.3,49.1,53.4,48.4,44.3,93,87,82,30.08,29.94,6,2,9,0.23
2013-5-6,66.2,59.4,54.7,63.8,57.2,53.0,95,92,87,29.96,29.82,5,2,10,1.23
2013-5-7,68.5,59.2,54.3,59.0,54.2,51.5,94,84,63,29.95,29.86,6,1,9,0.01
2013-5-8,68.9,60.9,53.6,60.9,55.6,50.4,91,83,70,30.02,29.92,5,1,8,0.11
2013-5-9,78.4,66.0,52.3,62.2,56.5,49.5,92,73,51,30.08,30.00,5,1,9,0.00
2013-5-10,83.8,71.3,57.4,66.4,59.4,52.3,87,67,50,30.08,29.96,3,1,9,0.00
2013-5-11,81.1,72.4,65.5,64.5,61.4,59.1,81,69,55,29.97,29.82,5,1,9,0.09
2013-5-12,70.7,63.5,54.7,59.5,47.7,36.4,88,60,34,30.03,29.84,7,2,10,0.01
2013-5-13,66.1,56.4,43.9,40.2,36.6,32.7,72,49,32,30.17,30.04,6,1,9,0.00
2013-5-14,71.6,57.6,41.7,46.6,40.1,33.0,74,54,39,30.25,30.07,3,1,9,0.00
2013-5-15,88.2,71.2,57.4,66.4,54.8,43.2,73,57,46,30.07,29.93,3,1,9,0.00
2013-5-16,84.6,74.8,64.8,62.7,59.4,57.0,78,60,44,30.02,29.93,3,1,6,0.00
2013-5-17,88.5,75.2,62.2,67.0,61.6,54.9,83,64,45,30.10,30.01,6,1,8,0.00
2013-5-18,75.2,69.4,64.9,65.4,62.1,59.3,86,78,69,30.17,30.09,3,1,8,0.17
2013-5-19,73.6,68.2,64.0,69.6,64.7,60.7,93,89,82,30.15,30.07,6,3,8,0.39
2013-5-20,67.5,67.2,66.9,64.6,64.5,64.4,92,91,90,30.11,30.08,5,3,6,0.00